Year,Month,Day,Hour,Minute,Value (Times are PST for windgust in km/hr)
2016,07,07,01,48,3.20
2016,07,07,01,49,1.60
2016,07,07,02,45,1.60
2016,07,07,02,46,1.60
2016,07,07,02,47,1.60
2016,07,07,02,48,1.60
2016,07,07,02,51,1.60
2016,07,07,02,52,1.60
2016,07,07,02,53,1.60
2016,07,07,03,00,1.60
2016,07,07,03,01,1.60
2016,07,07,03,02,1.60
2016,07,07,03,27,3.20
2016,07,07,03,28,3.20
2016,07,07,03,29,3.20
2016,07,07,03,30,1.60
2016,07,07,03,32,1.60
2016,07,07,03,33,1.60
2016,07,07,03,34,1.60
2016,07,07,03,37,1.60
2016,07,07,04,21,1.60
2016,07,07,04,22,1.60
2016,07,07,04,24,1.60
2016,07,07,04,32,1.60
2016,07,07,04,33,1.60
2016,07,07,04,34,3.20
2016,07,07,04,35,3.20
2016,07,07,04,36,3.20
2016,07,07,04,37,3.20
2016,07,07,04,38,3.20
2016,07,07,04,39,3.20
2016,07,07,04,40,1.60
2016,07,07,04,41,1.60
2016,07,07,04,44,1.60
2016,07,07,04,45,1.60
2016,07,07,04,46,1.60
2016,07,07,04,47,1.60
2016,07,07,04,56,1.60
2016,07,07,04,57,1.60
2016,07,07,04,58,1.60
2016,07,07,05,03,1.60
2016,07,07,05,04,1.60
2016,07,07,05,05,1.60
2016,07,07,05,06,1.60
2016,07,07,05,07,1.60
2016,07,07,05,08,1.60
2016,07,07,05,09,1.60
2016,07,07,05,22,1.60
2016,07,07,05,23,1.60
2016,07,07,05,24,1.60
2016,07,07,05,25,1.60
2016,07,07,05,43,1.60
2016,07,07,05,44,1.60
2016,07,07,05,45,1.60
2016,07,07,05,46,1.60
2016,07,07,05,47,1.60
2016,07,07,05,48,1.60
2016,07,07,06,34,3.20
2016,07,07,06,35,3.20
2016,07,07,06,37,3.20
2016,07,07,06,38,3.20
2016,07,07,06,39,1.60
2016,07,07,06,40,1.60
2016,07,07,06,41,1.60
2016,07,07,06,43,1.60
2016,07,07,06,44,1.60
2016,07,07,06,46,1.60
2016,07,07,06,47,1.60
2016,07,07,07,38,1.60
2016,07,07,07,39,1.60
2016,07,07,07,42,1.60
2016,07,07,07,48,1.60
2016,07,07,07,49,1.60
2016,07,07,07,54,1.60
2016,07,07,07,55,3.20
2016,07,07,07,56,1.60
2016,07,07,07,57,1.60
2016,07,07,07,58,1.60
2016,07,07,07,59,3.20
2016,07,07,08,00,3.20
2016,07,07,08,01,1.60
2016,07,07,08,03,3.20
2016,07,07,08,04,1.60
2016,07,07,08,06,3.20
2016,07,07,08,07,3.20
2016,07,07,08,08,3.20
2016,07,07,08,09,6.40
2016,07,07,08,10,3.20
2016,07,07,08,11,3.20
2016,07,07,08,12,1.60
2016,07,07,08,13,1.60
2016,07,07,08,14,1.60
2016,07,07,08,15,1.60
2016,07,07,08,16,3.20
2016,07,07,08,17,3.20
2016,07,07,08,18,3.20
2016,07,07,08,19,3.20
2016,07,07,08,20,3.20
2016,07,07,08,21,1.60
2016,07,07,08,22,6.40
2016,07,07,08,23,4.80
2016,07,07,08,25,1.60
2016,07,07,08,26,4.80
2016,07,07,08,27,3.20
2016,07,07,08,28,1.60
2016,07,07,08,29,1.60
2016,07,07,08,30,1.60
2016,07,07,08,31,4.80
2016,07,07,08,32,3.20
2016,07,07,08,33,4.80
2016,07,07,08,34,8.10
2016,07,07,08,35,8.10
2016,07,07,08,36,6.40
2016,07,07,08,37,8.10
2016,07,07,08,38,12.90
2016,07,07,08,39,11.30
2016,07,07,08,40,4.80
2016,07,07,08,41,6.40
2016,07,07,08,42,6.40
2016,07,07,08,43,6.40
2016,07,07,08,44,4.80
2016,07,07,08,45,1.60
2016,07,07,08,46,9.60
2016,07,07,08,47,8.10
2016,07,07,08,48,9.60
2016,07,07,08,49,8.10
2016,07,07,08,50,8.10
2016,07,07,08,51,4.80
2016,07,07,08,52,6.40
2016,07,07,08,53,4.80
2016,07,07,08,54,8.10
2016,07,07,08,55,11.30
2016,07,07,08,56,4.80
2016,07,07,08,57,9.60
2016,07,07,08,58,12.90
2016,07,07,08,59,9.60
2016,07,07,09,00,6.40
2016,07,07,09,01,9.60
2016,07,07,09,02,8.10
2016,07,07,09,03,4.80
2016,07,07,09,04,6.40
2016,07,07,09,05,11.30
2016,07,07,09,06,9.60
2016,07,07,09,07,9.60
2016,07,07,09,08,12.90
2016,07,07,09,09,14.50
2016,07,07,09,10,12.90
2016,07,07,09,11,14.50
2016,07,07,09,12,19.30
2016,07,07,09,13,8.10
2016,07,07,09,14,14.50
2016,07,07,09,15,6.40
2016,07,07,09,16,12.90
2016,07,07,09,17,12.90
2016,07,07,09,18,14.50
2016,07,07,09,19,16.10
2016,07,07,09,20,22.50
2016,07,07,09,21,14.50
2016,07,07,09,22,8.10
2016,07,07,09,23,3.20
2016,07,07,09,24,12.90
2016,07,07,09,25,20.90
2016,07,07,09,26,14.50
2016,07,07,09,27,19.30
2016,07,07,09,28,9.60
2016,07,07,09,29,19.30
2016,07,07,09,30,12.90
2016,07,07,09,31,14.50
2016,07,07,09,32,11.30
2016,07,07,09,33,12.90
2016,07,07,09,34,9.60
2016,07,07,09,35,14.50
2016,07,07,09,36,16.10
2016,07,07,09,37,6.40
2016,07,07,09,38,6.40
2016,07,07,09,39,9.60
2016,07,07,09,40,6.40
2016,07,07,09,41,4.80
2016,07,07,09,42,16.10
2016,07,07,09,43,14.50
2016,07,07,09,44,12.90
2016,07,07,09,45,6.40
2016,07,07,09,46,9.60
2016,07,07,09,47,4.80
2016,07,07,09,48,3.20
2016,07,07,09,49,4.80
2016,07,07,09,50,8.10
2016,07,07,09,51,11.30
2016,07,07,09,52,11.30
2016,07,07,09,53,11.30
2016,07,07,09,54,14.50
2016,07,07,09,55,14.50
2016,07,07,09,56,22.50
2016,07,07,09,57,12.90
2016,07,07,09,58,16.10
2016,07,07,09,59,11.30
2016,07,07,10,00,12.90
2016,07,07,10,01,12.90
2016,07,07,10,02,17.70
2016,07,07,10,03,11.30
2016,07,07,10,04,11.30
2016,07,07,10,05,11.30
2016,07,07,10,06,8.10
2016,07,07,10,07,16.10
2016,07,07,10,08,16.10
2016,07,07,10,09,12.90
2016,07,07,10,10,12.90
2016,07,07,10,11,11.30
2016,07,07,10,12,6.40
2016,07,07,10,13,12.90
2016,07,07,10,14,14.50
2016,07,07,10,15,14.50
2016,07,07,10,16,17.70
2016,07,07,10,17,14.50
2016,07,07,10,18,6.40
2016,07,07,10,19,25.70
2016,07,07,10,20,14.50
2016,07,07,10,21,11.30
2016,07,07,10,22,17.70
2016,07,07,10,23,12.90
2016,07,07,10,24,12.90
2016,07,07,10,25,14.50
2016,07,07,10,26,17.70
2016,07,07,10,27,17.70
2016,07,07,10,28,14.50
2016,07,07,10,29,8.10
2016,07,07,10,30,9.60
2016,07,07,10,31,4.80
2016,07,07,10,32,14.50
2016,07,07,10,33,14.50
2016,07,07,10,34,8.10
2016,07,07,10,35,12.90
2016,07,07,10,36,20.90
2016,07,07,10,37,20.90
2016,07,07,10,38,16.10
2016,07,07,10,39,14.50
2016,07,07,10,40,11.30
2016,07,07,10,41,12.90
2016,07,07,10,42,12.90
2016,07,07,10,43,22.50
2016,07,07,10,44,16.10
2016,07,07,10,45,14.50
2016,07,07,10,46,16.10
2016,07,07,10,47,14.50
2016,07,07,10,48,9.60
2016,07,07,10,49,24.20
2016,07,07,10,50,11.30
2016,07,07,10,51,12.90
2016,07,07,10,52,22.50
2016,07,07,10,53,19.30
2016,07,07,10,54,16.10
2016,07,07,10,55,11.30
2016,07,07,10,56,11.30
2016,07,07,10,57,9.60
2016,07,07,10,58,16.10
2016,07,07,10,59,19.30
2016,07,07,11,00,14.50
2016,07,07,11,01,19.30
2016,07,07,11,02,11.30
2016,07,07,11,03,6.40
2016,07,07,11,04,9.60
2016,07,07,11,05,12.90
2016,07,07,11,06,11.30
2016,07,07,11,07,16.10
2016,07,07,11,08,16.10
2016,07,07,11,09,9.60
2016,07,07,11,10,11.30
2016,07,07,11,11,9.60
2016,07,07,11,12,14.50
2016,07,07,11,13,9.60
2016,07,07,11,14,1.60
2016,07,07,11,15,12.90
2016,07,07,11,16,6.40
2016,07,07,11,17,12.90
2016,07,07,11,18,11.30
2016,07,07,11,19,17.70
2016,07,07,11,20,17.70
2016,07,07,11,21,20.90
2016,07,07,11,22,11.30
2016,07,07,11,23,16.10
2016,07,07,11,24,9.60
2016,07,07,11,25,12.90
2016,07,07,11,26,14.50
2016,07,07,11,27,17.70
2016,07,07,11,28,11.30
2016,07,07,11,29,12.90
2016,07,07,11,30,17.70
2016,07,07,11,31,8.10
2016,07,07,11,32,12.90
2016,07,07,11,33,11.30
2016,07,07,11,34,12.90
2016,07,07,11,35,9.60
2016,07,07,11,36,17.70
2016,07,07,11,37,17.70
2016,07,07,11,38,8.10
2016,07,07,11,39,11.30
2016,07,07,11,40,11.30
2016,07,07,11,41,17.70
2016,07,07,11,42,19.30
2016,07,07,11,43,9.60
2016,07,07,11,44,11.30
2016,07,07,11,45,8.10
2016,07,07,11,46,16.10
2016,07,07,11,47,12.90
2016,07,07,11,48,16.10
2016,07,07,11,49,25.70
2016,07,07,11,50,17.70
2016,07,07,11,51,12.90
2016,07,07,11,52,12.90
2016,07,07,11,53,16.10
2016,07,07,11,54,11.30
2016,07,07,11,55,19.30
2016,07,07,11,56,12.90
2016,07,07,11,57,16.10
2016,07,07,11,58,20.90
2016,07,07,11,59,9.60
2016,07,07,12,00,6.40
2016,07,07,12,01,17.70
2016,07,07,12,02,12.90
2016,07,07,12,03,12.90
2016,07,07,12,04,12.90
2016,07,07,12,05,11.30
2016,07,07,12,06,12.90
2016,07,07,12,07,8.10
2016,07,07,12,08,9.60
2016,07,07,12,09,14.50
2016,07,07,12,10,9.60
2016,07,07,12,11,16.10
2016,07,07,12,12,19.30
2016,07,07,12,13,17.70
2016,07,07,12,14,16.10
2016,07,07,12,15,11.30
2016,07,07,12,16,14.50
2016,07,07,12,17,12.90
2016,07,07,12,18,14.50
2016,07,07,12,19,11.30
2016,07,07,12,20,14.50
2016,07,07,12,21,24.20
2016,07,07,12,22,8.10
2016,07,07,12,23,20.90
2016,07,07,12,24,8.10
2016,07,07,12,25,12.90
2016,07,07,12,26,14.50
2016,07,07,12,27,16.10
2016,07,07,12,28,12.90
2016,07,07,12,29,16.10
2016,07,07,12,30,6.40
2016,07,07,12,31,12.90
2016,07,07,12,32,17.70
2016,07,07,12,33,8.10
2016,07,07,12,34,6.40
2016,07,07,12,35,19.30
2016,07,07,12,36,17.70
2016,07,07,12,37,14.50
2016,07,07,12,38,12.90
2016,07,07,12,39,11.30
2016,07,07,12,40,19.30
2016,07,07,12,41,17.70
2016,07,07,12,42,9.60
2016,07,07,12,43,14.50
2016,07,07,12,44,14.50
2016,07,07,12,45,11.30
2016,07,07,12,46,16.10
2016,07,07,12,47,16.10
2016,07,07,12,48,22.50
2016,07,07,12,49,14.50
2016,07,07,12,50,11.30
2016,07,07,12,51,11.30
2016,07,07,12,52,19.30
2016,07,07,12,53,19.30
2016,07,07,12,54,16.10
2016,07,07,12,55,16.10
2016,07,07,12,56,14.50
2016,07,07,12,57,11.30
2016,07,07,12,58,9.60
2016,07,07,12,59,12.90
2016,07,07,13,00,17.70
2016,07,07,13,01,19.30
2016,07,07,13,02,12.90
2016,07,07,13,03,14.50
2016,07,07,13,04,16.10
2016,07,07,13,05,22.50
2016,07,07,13,06,17.70
2016,07,07,13,07,12.90
2016,07,07,13,08,17.70
2016,07,07,13,09,12.90
2016,07,07,13,10,14.50
2016,07,07,13,11,19.30
2016,07,07,13,12,19.30
2016,07,07,13,13,8.10
2016,07,07,13,14,16.10
2016,07,07,13,15,24.20
2016,07,07,13,16,12.90
2016,07,07,13,17,14.50
2016,07,07,13,18,20.90
2016,07,07,13,19,20.90
2016,07,07,13,20,24.20
2016,07,07,13,21,22.50
2016,07,07,13,22,19.30
2016,07,07,13,23,25.70
2016,07,07,13,24,27.40
2016,07,07,13,25,16.10
2016,07,07,13,26,17.70
2016,07,07,13,27,22.50
2016,07,07,13,28,17.70
2016,07,07,13,29,17.70
2016,07,07,13,30,22.50
2016,07,07,13,31,11.30
2016,07,07,13,32,9.60
2016,07,07,13,33,6.40
2016,07,07,13,34,33.80
2016,07,07,13,35,16.10
2016,07,07,13,36,14.50
2016,07,07,13,37,16.10
2016,07,07,13,38,14.50
2016,07,07,13,39,14.50
2016,07,07,13,40,19.30
2016,07,07,13,41,20.90
2016,07,07,13,42,27.40
2016,07,07,13,43,12.90
2016,07,07,13,44,12.90
2016,07,07,13,45,24.20
2016,07,07,13,46,22.50
2016,07,07,13,47,17.70
2016,07,07,13,48,17.70
2016,07,07,13,49,16.10
2016,07,07,13,50,17.70
2016,07,07,13,51,20.90
2016,07,07,13,52,24.20
2016,07,07,13,53,6.40
2016,07,07,13,54,19.30
2016,07,07,13,55,20.90
2016,07,07,13,56,20.90
2016,07,07,13,57,20.90
2016,07,07,13,58,11.30
2016,07,07,13,59,32.20
2016,07,07,14,00,25.70
2016,07,07,14,01,22.50
2016,07,07,14,02,9.60
2016,07,07,14,03,25.70
2016,07,07,14,04,30.60
2016,07,07,14,05,20.90
2016,07,07,14,06,24.20
2016,07,07,14,07,25.70
2016,07,07,14,08,17.70
2016,07,07,14,09,30.60
2016,07,07,14,10,29.00
2016,07,07,14,11,37.00
2016,07,07,14,12,20.90
2016,07,07,14,13,19.30
2016,07,07,14,14,19.30
2016,07,07,14,15,19.30
2016,07,07,14,16,25.70
2016,07,07,14,17,14.50
2016,07,07,14,18,22.50
2016,07,07,14,19,19.30
2016,07,07,14,20,14.50
2016,07,07,14,21,12.90
2016,07,07,14,22,20.90
2016,07,07,14,23,22.50
2016,07,07,14,24,24.20
2016,07,07,14,25,14.50
2016,07,07,14,26,19.30
2016,07,07,14,27,17.70
2016,07,07,14,28,25.70
2016,07,07,14,29,19.30
2016,07,07,14,30,14.50
2016,07,07,14,31,30.60
2016,07,07,14,32,25.70
2016,07,07,14,33,25.70
2016,07,07,14,34,29.00
2016,07,07,14,35,6.40
2016,07,07,14,36,17.70
2016,07,07,14,37,12.90
2016,07,07,14,38,16.10
2016,07,07,14,39,16.10
2016,07,07,14,40,20.90
2016,07,07,14,41,19.30
2016,07,07,14,42,19.30
2016,07,07,14,43,16.10
2016,07,07,14,44,11.30
2016,07,07,14,45,14.50
2016,07,07,14,46,14.50
2016,07,07,14,47,9.60
2016,07,07,14,48,12.90
2016,07,07,14,49,14.50
2016,07,07,14,50,14.50
2016,07,07,14,51,25.70
2016,07,07,14,52,22.50
2016,07,07,14,53,12.90
2016,07,07,14,54,12.90
2016,07,07,14,55,12.90
2016,07,07,14,56,11.30
2016,07,07,14,57,14.50
2016,07,07,14,58,14.50
2016,07,07,14,59,11.30
2016,07,07,15,00,16.10
2016,07,07,15,01,22.50
2016,07,07,15,02,11.30
2016,07,07,15,03,14.50
2016,07,07,15,04,24.20
2016,07,07,15,05,22.50
2016,07,07,15,06,16.10
2016,07,07,15,07,8.10
2016,07,07,15,08,19.30
2016,07,07,15,09,20.90
2016,07,07,15,10,22.50
2016,07,07,15,11,17.70
2016,07,07,15,12,6.40
2016,07,07,15,13,22.50
2016,07,07,15,14,16.10
2016,07,07,15,15,14.50
2016,07,07,15,16,14.50
2016,07,07,15,17,20.90
2016,07,07,15,18,19.30
2016,07,07,15,19,24.20
2016,07,07,15,20,20.90
2016,07,07,15,21,22.50
2016,07,07,15,22,9.60
2016,07,07,15,23,27.40
2016,07,07,15,24,14.50
2016,07,07,15,25,27.40
2016,07,07,15,26,27.40
2016,07,07,15,27,25.70
2016,07,07,15,28,24.20
2016,07,07,15,29,25.70
2016,07,07,15,30,20.90
2016,07,07,15,31,24.20
2016,07,07,15,32,33.80
2016,07,07,15,33,37.00
2016,07,07,15,34,17.70
2016,07,07,15,35,19.30
2016,07,07,15,36,27.40
2016,07,07,15,37,27.40
2016,07,07,15,38,29.00
2016,07,07,15,39,24.20
2016,07,07,15,40,25.70
2016,07,07,15,41,27.40
2016,07,07,15,42,14.50
2016,07,07,15,43,6.40
2016,07,07,15,44,17.70
2016,07,07,15,45,19.30
2016,07,07,15,46,20.90
2016,07,07,15,47,25.70
2016,07,07,15,48,29.00
2016,07,07,15,49,27.40
2016,07,07,15,50,22.50
2016,07,07,15,51,17.70
2016,07,07,15,52,24.20
2016,07,07,15,53,25.70
2016,07,07,15,54,20.90
2016,07,07,15,55,14.50
2016,07,07,15,56,25.70
2016,07,07,15,57,22.50
2016,07,07,15,58,22.50
2016,07,07,15,59,22.50
2016,07,07,16,00,17.70
2016,07,07,16,01,22.50
2016,07,07,16,02,14.50
2016,07,07,16,03,20.90
2016,07,07,16,04,17.70
2016,07,07,16,05,16.10
2016,07,07,16,06,20.90
2016,07,07,16,07,11.30
2016,07,07,16,08,20.90
2016,07,07,16,09,16.10
2016,07,07,16,10,19.30
2016,07,07,16,11,19.30
2016,07,07,16,12,16.10
2016,07,07,16,13,9.60
2016,07,07,16,14,19.30
2016,07,07,16,15,16.10
2016,07,07,16,16,20.90
2016,07,07,16,17,16.10
2016,07,07,16,18,17.70
2016,07,07,16,19,11.30
2016,07,07,16,20,20.90
2016,07,07,16,21,16.10
2016,07,07,16,22,19.30
2016,07,07,16,23,29.00
2016,07,07,16,24,29.00
2016,07,07,16,25,25.70
2016,07,07,16,26,17.70
2016,07,07,16,27,19.30
2016,07,07,16,28,14.50
2016,07,07,16,29,14.50
2016,07,07,16,30,12.90
2016,07,07,16,31,12.90
2016,07,07,16,32,14.50
2016,07,07,16,33,27.40
2016,07,07,16,34,11.30
2016,07,07,16,35,16.10
2016,07,07,16,36,16.10
2016,07,07,16,37,17.70
2016,07,07,16,38,19.30
2016,07,07,16,39,29.00
2016,07,07,16,40,11.30
2016,07,07,16,41,22.50
2016,07,07,16,42,12.90
2016,07,07,16,43,16.10
2016,07,07,16,44,8.10
2016,07,07,16,45,32.20
2016,07,07,16,46,19.30
2016,07,07,16,47,12.90
2016,07,07,16,48,19.30
2016,07,07,16,49,16.10
2016,07,07,16,50,24.20
2016,07,07,16,51,32.20
2016,07,07,16,52,24.20
2016,07,07,16,53,16.10
2016,07,07,16,54,27.40
2016,07,07,16,55,29.00
2016,07,07,16,56,25.70
2016,07,07,16,57,17.70
2016,07,07,16,58,20.90
2016,07,07,16,59,29.00
2016,07,07,17,00,35.40
2016,07,07,17,01,14.50
2016,07,07,17,02,20.90
2016,07,07,17,03,32.20
2016,07,07,17,04,25.70
2016,07,07,17,05,27.40
2016,07,07,17,06,30.60
2016,07,07,17,07,19.30
2016,07,07,17,08,25.70
2016,07,07,17,09,22.50
2016,07,07,17,10,30.60
2016,07,07,17,11,20.90
2016,07,07,17,12,27.40
2016,07,07,17,13,30.60
2016,07,07,17,14,27.40
2016,07,07,17,15,14.50
2016,07,07,17,16,38.60
2016,07,07,17,17,20.90
2016,07,07,17,18,27.40
2016,07,07,17,19,17.70
2016,07,07,17,20,27.40
2016,07,07,17,21,24.20
2016,07,07,17,22,17.70
2016,07,07,17,23,19.30
2016,07,07,17,24,17.70
2016,07,07,17,25,27.40
2016,07,07,17,26,19.30
2016,07,07,17,27,19.30
2016,07,07,17,28,16.10
2016,07,07,17,29,22.50
2016,07,07,17,30,17.70
2016,07,07,17,31,30.60
2016,07,07,17,32,22.50
2016,07,07,17,33,22.50
2016,07,07,17,34,19.30
2016,07,07,17,35,17.70
2016,07,07,17,36,14.50
2016,07,07,17,37,25.70
2016,07,07,17,38,17.70
2016,07,07,17,39,27.40
2016,07,07,17,40,17.70
2016,07,07,17,41,14.50
2016,07,07,17,42,17.70
2016,07,07,17,43,14.50
2016,07,07,17,44,30.60
2016,07,07,17,45,25.70
2016,07,07,17,46,17.70
2016,07,07,17,47,19.30
2016,07,07,17,48,17.70
2016,07,07,17,49,19.30
2016,07,07,17,50,12.90
2016,07,07,17,51,25.70
2016,07,07,17,52,19.30
2016,07,07,17,53,24.20
2016,07,07,17,54,17.70
2016,07,07,17,55,29.00
2016,07,07,17,56,16.10
2016,07,07,17,57,17.70
2016,07,07,17,58,22.50
2016,07,07,17,59,12.90
2016,07,07,18,00,20.90
2016,07,07,18,01,29.00
2016,07,07,18,02,17.70
2016,07,07,18,03,22.50
2016,07,07,18,04,20.90
2016,07,07,18,05,27.40
2016,07,07,18,06,24.20
2016,07,07,18,07,22.50
2016,07,07,18,08,14.50
2016,07,07,18,09,24.20
2016,07,07,18,10,20.90
2016,07,07,18,11,16.10
2016,07,07,18,12,12.90
2016,07,07,18,13,16.10
2016,07,07,18,14,17.70
2016,07,07,18,15,19.30
2016,07,07,18,16,20.90
2016,07,07,18,17,16.10
2016,07,07,18,18,14.50
2016,07,07,18,19,14.50
2016,07,07,18,20,22.50
2016,07,07,18,21,24.20
2016,07,07,18,22,16.10
2016,07,07,18,23,11.30
2016,07,07,18,24,20.90
2016,07,07,18,25,11.30
2016,07,07,18,26,12.90
2016,07,07,18,27,14.50
2016,07,07,18,28,14.50
2016,07,07,18,29,19.30
2016,07,07,18,30,16.10
2016,07,07,18,31,16.10
2016,07,07,18,32,30.60
2016,07,07,18,33,22.50
2016,07,07,18,34,14.50
2016,07,07,18,35,19.30
2016,07,07,18,36,14.50
2016,07,07,18,37,19.30
2016,07,07,18,38,32.20
2016,07,07,18,39,22.50
2016,07,07,18,40,12.90
2016,07,07,18,41,16.10
2016,07,07,18,42,17.70
2016,07,07,18,43,16.10
2016,07,07,18,44,27.40
2016,07,07,18,45,20.90
2016,07,07,18,46,17.70
2016,07,07,18,47,9.60
2016,07,07,18,48,17.70
2016,07,07,18,49,14.50
2016,07,07,18,50,19.30
2016,07,07,18,51,17.70
2016,07,07,18,52,11.30
2016,07,07,18,53,11.30
2016,07,07,18,54,24.20
2016,07,07,18,55,19.30
2016,07,07,18,56,12.90
2016,07,07,18,57,24.20
2016,07,07,18,58,11.30
2016,07,07,18,59,17.70
2016,07,07,19,00,14.50
2016,07,07,19,01,25.70
2016,07,07,19,02,16.10
2016,07,07,19,03,16.10
2016,07,07,19,04,16.10
2016,07,07,19,05,22.50
2016,07,07,19,06,9.60
2016,07,07,19,07,8.10
2016,07,07,19,08,11.30
2016,07,07,19,09,14.50
2016,07,07,19,10,14.50
2016,07,07,19,11,19.30
2016,07,07,19,12,19.30
2016,07,07,19,13,11.30
2016,07,07,19,14,22.50
2016,07,07,19,15,14.50
2016,07,07,19,16,16.10
2016,07,07,19,17,11.30
2016,07,07,19,18,12.90
2016,07,07,19,19,16.10
2016,07,07,19,20,20.90
2016,07,07,19,21,16.10
2016,07,07,19,22,9.60
2016,07,07,19,23,11.30
2016,07,07,19,24,11.30
2016,07,07,19,25,20.90
2016,07,07,19,26,16.10
2016,07,07,19,27,16.10
2016,07,07,19,28,24.20
2016,07,07,19,29,19.30
2016,07,07,19,30,25.70
2016,07,07,19,31,20.90
2016,07,07,19,32,17.70
2016,07,07,19,33,16.10
2016,07,07,19,34,12.90
2016,07,07,19,35,22.50
2016,07,07,19,36,22.50
2016,07,07,19,37,12.90
2016,07,07,19,38,19.30
2016,07,07,19,39,17.70
2016,07,07,19,40,11.30
2016,07,07,19,41,8.10
2016,07,07,19,42,20.90
2016,07,07,19,43,25.70
2016,07,07,19,44,16.10
2016,07,07,19,45,12.90
2016,07,07,19,46,20.90
2016,07,07,19,47,24.20
2016,07,07,19,48,20.90
2016,07,07,19,49,12.90
2016,07,07,19,50,25.70
2016,07,07,19,51,12.90
2016,07,07,19,52,11.30
2016,07,07,19,53,6.40
2016,07,07,19,54,17.70
2016,07,07,19,55,16.10
2016,07,07,19,56,22.50
2016,07,07,19,57,24.20
2016,07,07,19,58,17.70
2016,07,07,19,59,20.90
2016,07,07,20,00,16.10
2016,07,07,20,01,11.30
2016,07,07,20,02,17.70
2016,07,07,20,03,22.50
2016,07,07,20,04,17.70
2016,07,07,20,05,17.70
2016,07,07,20,06,17.70
2016,07,07,20,07,11.30
2016,07,07,20,08,17.70
2016,07,07,20,09,17.70
2016,07,07,20,10,17.70
2016,07,07,20,11,16.10
2016,07,07,20,12,17.70
2016,07,07,20,13,20.90
2016,07,07,20,14,17.70
2016,07,07,20,15,22.50
2016,07,07,20,16,19.30
2016,07,07,20,17,19.30
2016,07,07,20,18,19.30
2016,07,07,20,19,19.30
2016,07,07,20,20,17.70
2016,07,07,20,21,17.70
2016,07,07,20,22,12.90
2016,07,07,20,23,33.80
2016,07,07,20,24,19.30
2016,07,07,20,25,22.50
2016,07,07,20,26,14.50
2016,07,07,20,27,22.50
2016,07,07,20,28,20.90
2016,07,07,20,29,19.30
2016,07,07,20,30,16.10
2016,07,07,20,31,17.70
2016,07,07,20,32,17.70
2016,07,07,20,33,24.20
2016,07,07,20,34,25.70
2016,07,07,20,35,22.50
2016,07,07,20,36,22.50
2016,07,07,20,37,17.70
2016,07,07,20,38,11.30
2016,07,07,20,39,17.70
2016,07,07,20,40,17.70
2016,07,07,20,41,22.50
2016,07,07,20,42,17.70
2016,07,07,20,43,20.90
2016,07,07,20,44,20.90
2016,07,07,20,45,19.30
2016,07,07,20,46,22.50
2016,07,07,20,47,19.30
2016,07,07,20,48,17.70
2016,07,07,20,49,9.60
2016,07,07,20,50,17.70
2016,07,07,20,51,16.10
2016,07,07,20,52,20.90
2016,07,07,20,53,20.90
2016,07,07,20,54,20.90
2016,07,07,20,55,20.90
2016,07,07,20,56,27.40
2016,07,07,20,57,37.00
2016,07,07,20,58,25.70
2016,07,07,20,59,12.90
2016,07,07,21,00,22.50
2016,07,07,21,01,14.50
2016,07,07,21,02,29.00
2016,07,07,21,03,24.20
2016,07,07,21,04,25.70
2016,07,07,21,05,27.40
2016,07,07,21,06,32.20
2016,07,07,21,07,24.20
2016,07,07,21,08,16.10
2016,07,07,21,09,27.40
2016,07,07,21,10,16.10
2016,07,07,21,11,14.50
2016,07,07,21,12,19.30
2016,07,07,21,13,25.70
2016,07,07,21,14,24.20
2016,07,07,21,15,22.50
2016,07,07,21,16,25.70
2016,07,07,21,17,22.50
2016,07,07,21,18,12.90
2016,07,07,21,19,16.10
2016,07,07,21,20,30.60
2016,07,07,21,21,27.40
2016,07,07,21,22,9.60
2016,07,07,21,23,20.90
2016,07,07,21,24,17.70
2016,07,07,21,25,22.50
2016,07,07,21,26,14.50
2016,07,07,21,27,11.30
2016,07,07,21,28,17.70
2016,07,07,21,29,29.00
2016,07,07,21,30,16.10
2016,07,07,21,31,16.10
2016,07,07,21,32,19.30
2016,07,07,21,33,24.20
2016,07,07,21,34,22.50
2016,07,07,21,35,22.50
2016,07,07,21,36,27.40
2016,07,07,21,37,30.60
2016,07,07,21,38,16.10
2016,07,07,21,39,14.50
2016,07,07,21,40,22.50
2016,07,07,21,41,20.90
2016,07,07,21,42,20.90
2016,07,07,21,43,19.30
2016,07,07,21,44,20.90
2016,07,07,21,45,22.50
2016,07,07,21,46,22.50
2016,07,07,21,47,20.90
2016,07,07,21,48,22.50
2016,07,07,21,49,19.30
2016,07,07,21,50,17.70
2016,07,07,21,51,29.00
2016,07,07,21,52,19.30
2016,07,07,21,53,16.10
2016,07,07,21,54,17.70
2016,07,07,21,55,16.10
2016,07,07,21,56,12.90
2016,07,07,21,57,16.10
2016,07,07,21,58,14.50
2016,07,07,21,59,12.90
2016,07,07,22,00,12.90
2016,07,07,22,01,19.30
2016,07,07,22,02,20.90
2016,07,07,22,03,14.50
2016,07,07,22,04,19.30
2016,07,07,22,05,19.30
2016,07,07,22,06,20.90
2016,07,07,22,07,19.30
2016,07,07,22,08,9.60
2016,07,07,22,09,12.90
2016,07,07,22,10,22.50
2016,07,07,22,11,25.70
2016,07,07,22,12,16.10
2016,07,07,22,13,40.20
2016,07,07,22,14,19.30
2016,07,07,22,15,20.90
2016,07,07,22,16,24.20
2016,07,07,22,17,16.10
2016,07,07,22,18,17.70
2016,07,07,22,19,24.20
2016,07,07,22,20,20.90
2016,07,07,22,21,17.70
2016,07,07,22,22,19.30
2016,07,07,22,23,33.80
2016,07,07,22,24,32.20
2016,07,07,22,25,22.50
2016,07,07,22,26,17.70
2016,07,07,22,27,17.70
2016,07,07,22,28,27.40
2016,07,07,22,29,19.30
2016,07,07,22,30,38.60
2016,07,07,22,31,16.10
2016,07,07,22,32,20.90
2016,07,07,22,33,25.70
2016,07,07,22,34,24.20
2016,07,07,22,35,20.90
2016,07,07,22,36,40.20
2016,07,07,22,37,22.50
2016,07,07,22,38,22.50
2016,07,07,22,39,17.70
2016,07,07,22,40,11.30
2016,07,07,22,41,20.90
2016,07,07,22,42,27.40
2016,07,07,22,43,19.30
2016,07,07,22,44,25.70
2016,07,07,22,45,20.90
2016,07,07,22,46,19.30
2016,07,07,22,47,25.70
2016,07,07,22,48,16.10
2016,07,07,22,49,19.30
2016,07,07,22,50,14.50
2016,07,07,22,51,17.70
2016,07,07,22,52,17.70
2016,07,07,22,53,22.50
2016,07,07,22,54,29.00
2016,07,07,22,55,29.00
2016,07,07,22,56,29.00
2016,07,07,22,57,25.70
2016,07,07,22,58,14.50
2016,07,07,22,59,16.10
2016,07,07,23,00,19.30
2016,07,07,23,01,24.20
2016,07,07,23,02,22.50
2016,07,07,23,03,17.70
2016,07,07,23,04,16.10
2016,07,07,23,05,22.50
2016,07,07,23,06,29.00
2016,07,07,23,07,25.70
2016,07,07,23,08,20.90
2016,07,07,23,09,29.00
2016,07,07,23,10,22.50
2016,07,07,23,11,20.90
2016,07,07,23,12,14.50
2016,07,07,23,13,14.50
2016,07,07,23,14,14.50
2016,07,07,23,15,16.10
2016,07,07,23,16,25.70
2016,07,07,23,17,16.10
2016,07,07,23,18,12.90
2016,07,07,23,19,22.50
2016,07,07,23,20,25.70
2016,07,07,23,21,20.90
2016,07,07,23,22,20.90
2016,07,07,23,23,16.10
2016,07,07,23,24,27.40
2016,07,07,23,25,27.40
2016,07,07,23,26,14.50
2016,07,07,23,27,17.70
2016,07,07,23,28,19.30
2016,07,07,23,29,24.20
2016,07,07,23,30,27.40
2016,07,07,23,31,22.50
2016,07,07,23,32,22.50
2016,07,07,23,33,16.10
2016,07,07,23,34,27.40
2016,07,07,23,35,17.70
2016,07,07,23,36,17.70
2016,07,07,23,37,16.10
2016,07,07,23,38,19.30
2016,07,07,23,39,24.20
2016,07,07,23,40,27.40
2016,07,07,23,41,27.40
2016,07,07,23,42,25.70
2016,07,07,23,43,16.10
2016,07,07,23,44,14.50
2016,07,07,23,45,19.30
2016,07,07,23,46,19.30
2016,07,07,23,47,33.80
2016,07,07,23,48,29.00
2016,07,07,23,49,20.90
2016,07,07,23,50,19.30
2016,07,07,23,51,11.30
2016,07,07,23,52,24.20
2016,07,07,23,53,14.50
2016,07,07,23,54,11.30
2016,07,07,23,55,9.60
2016,07,07,23,56,25.70
2016,07,07,23,57,24.20
2016,07,07,23,58,20.90
2016,07,07,23,59,11.30
